Temperature
11 11 11 11 11 11 11 10 10 10 10 11 11 11 11 11 11 11 11 11 11 11 11 11 11 11 11 11 11 11 11 11 11 11 11 11 11 11
11 11 11 11 11 11 10 10 10 10 10 10 10 10 10 10 11 11 11 11 11 11 11 11 11 11 11 11 11 11 11 11 11 11 11 11 11 11
11 11 10 10 10 10 10 10 10 10 10 10 10 10 10 10 10 10 10 11 11 11 11 11 11 11 11 11 11 11 11 11 11 11 11 10 10 10
10 10 10 10 10 10 10 10 10 10 10 10 10 10 10 10 10 10 10 10 10 10 11 11 11 11 11 11 10 11 11 11 11 10 10 10 10 10
10 10 10 10 10 10 10 10 9 9 9 9 9 10 10 10 10 10 10 10 10 10 10 11 11 10 11 10 10 10 10 10 10 10 10 10 10 10
9 9 9 9 9 9 9 9 9 9 9 9 9 9 9 10 10 10 10 10 10 10 10 10 10 10 10 10 10 10 10 10 10 10 10 10 10 10
9 9 9 9 9 9 9 9 9 9 9 9 9 9 9 9 9 9 10 10 10 10 10 10 10 10 10 10 10 10 10 10 10 10 10 10 10 10
9 9 9 9 9 9 9 9 9 9 9 9 9 9 9 9 9 9 9 9 9 9 10 10 10 10 10 10 10 10 10 10 10 10 9 9 9 9
8 9 9 9 9 9 9 9 9 9 9 9 9 9 9 9 9 9 9 9 9 9 9 9 9 10 10 9 9 9 9 9 9 9 9 9 9 9
8 8 8 8 8 8 8 9 9 9 9 9 9 9 9 9 9 9 9 9 9 9 9 9 9 9 9 9 9 9 9 9 9 9 9 9 9 9
8 8 8 8 8 8 8 8 8 9 9 8 8 8 8 8 8 8 8 8 8 8 8 8 8 9 9 9 9 9 9 9 9 9 9 9 9 9
8 8 8 8 8 8 8 8 8 8 8 8 8 8 8 8 8 8 8 8 8 8 8 8 8 8 8 9 9 9 9 9 9 9 9 9 9 8
7 8 8 8 8 8 8 8 8 8 8 8 8 8 8 8 8 8 8 8 8 8 8 7 7 7 7 7 8 8 8 8 8 8 8 8 8 8
7 7 7 7 7 7 7 7 8 8 7 7 7 7 8 8 8 8 8 7 8 8 8 7 7 7 7 7 7 8 8 8 8 8 8 8 8 8
7 7 7 7 7 7 7 7 7 7 7 7 7 7 7 7 7 7 7 7 7 7 7 7 7 7 7 7 7 7 7 7 7 7 7 7 7 7
6 6 6 7 7 7 7 7 7 7 7 7 7 7 7 7 7 7 7 7 7 7 7 7 7 7 7 7 7 7 7 7 7 7 7 7 7 7
6 6 6 6 6 6 6 6 6 6 6 6 6 6 6 6 6 6 6 6 6 6 7 7 6 6 7 7 7 7 7 7 7 7 7 7 7 7
5 5 5 5 5 5 5 5 5 6 6 6 6 6 6 6 6 6 6 6 6 6 6 6 6 6 6 6 6 6 6 6 7 7 7 7 7 7
5 5 5 5 5 5 5 5 5 5 5 5 5 5 5 5 5 5 5 5 5 5 5 5 5 5 5 5 6 6 6 6 6 6 6 6 6 6
4 4 4 4 4 4 4 4 4 4 5 5 5 5 5 5 5 5 5 5 5 5 5 5 5 5 5 5 5 5 5 5 5 6 6 6 6 6
4 4 4 4 4 4 4 4 4 4 4 4 4 4 4 4 4 4 4 4 4 4 4 4 4 4 4 4 4 4 5 5 5 5 5 5 5 5
4 4 4 3 3 3 3 3 3 3 3 3 3 4 4 4 4 4 4 4 4 4 4 4 4 4 4 4 4 4 4 4 4 4 4 4 4 4
3 3 3 3 3 3 3 3 3 3 3 3 3 3 3 3 3 3 3 3 3 3 3 3 3 3 3 3 3 3 3 3 4 4 4 4 4 4
Wind_Speed
1 1 1 1 1 1 1 0 0 2 2 1 1 2 3 3 2 2 1 1 1 2 2 3 4 4 4 5 5 5 5 5 5 5 6 6 6 6
1 1 1 1 1 1 1 1 1 0 1 1 1 0 1 2 2 2 2 1 1 1 1 1 2 3 3 4 4 4 4 5 5 5 5 5 6 6
2 1 1 1 1 1 1 1 2 1 1 2 1 0 1 1 1 2 2 1 1 2 2 1 0 1 2 2 3 3 4 4 4 4 4 4 4 4
2 1 1 1 1 0 0 0 1 1 1 3 2 1 0 1 1 2 1 2 1 2 3 3 3 2 2 2 2 2 2 2 3 3 4 4 3 3
2 2 1 1 1 1 1 1 1 2 1 2 2 2 1 1 1 2 2 1 2 2 3 4 4 4 4 3 2 2 2 1 1 2 2 2 2 2
2 2 2 2 1 1 1 1 1 1 1 2 2 2 1 1 0 1 1 2 2 2 1 2 3 4 4 4 4 3 3 3 2 2 1 1 1 1
2 2 2 3 4 2 2 1 1 1 2 2 2 1 1 1 1 1 1 2 2 1 0 1 1 2 3 4 5 5 5 4 3 3 2 2 1 1
2 2 2 2 3 4 4 3 2 2 2 2 2 2 2 2 1 1 0 1 2 1 0 2 1 1 2 4 6 6 5 4 4 4 3 3 2 2
2 2 3 3 3 2 4 5 5 5 4 3 2 3 2 2 2 1 1 1 2 2 0 2 1 2 2 3 6 7 6 6 5 5 5 5 4 4
2 2 2 2 4 4 3 3 3 4 4 4 3 3 3 3 3 3 2 2 2 1 1 1 2 2 2 3 6 7 7 7 6 5 5 6 6 6
3 3 2 2 5 6 3 4 4 4 5 6 5 4 4 5 3 1 1 1 1 2 1 1 1 2 2 2 4 7 7 7 7 6 6 7 7 7
3 3 4 4 5 6 3 3 4 4 3 3 3 4 4 4 4 3 3 2 1 2 1 1 1 1 2 2 1 3 4 6 7 7 7 7 7 5
3 3 3 6 6 7 5 3 4 4 3 2 2 2 2 1 2 2 3 3 3 3 2 1 1 1 1 2 2 1 2 2 4 5 7 8 8 7
3 3 4 7 8 8 5 6 6 5 2 2 2 2 2 2 2 2 3 3 4 4 4 3 2 2 2 2 3 2 2 2 2 2 4 6 7 8
4 6 7 8 7 5 6 7 5 3 2 2 3 3 3 3 2 1 2 3 4 4 3 2 2 2 2 3 3 2 2 2 2 2 2 3 4 4
5 6 7 6 5 5 6 5 3 3 2 3 3 3 2 2 2 2 2 1 2 2 3 4 3 3 2 3 3 3 2 2 2 2 2 2 3 4
4 4 3 3 3 3 3 3 3 2 3 3 2 2 2 2 2 1 1 1 2 3 2 2 2 3 3 3 3 3 3 3 3 3 2 2 3 4
3 3 3 3 3 3 4 3 3 3 3 2 2 2 2 2 2 1 1 2 2 3 2 2 1 1 2 2 4 4 3 3 3 2 1 2 4 3
2 3 3 3 3 3 3 3 3 3 3 2 2 2 2 2 2 2 2 2 2 3 3 2 1 2 2 4 3 4 3 3 2 2 2 2 4 4
2 3 3 3 3 3 3 3 3 3 3 3 2 2 2 2 2 2 2 3 3 3 3 2 2 3 4 4 3 3 5 3 2 2 2 2 2 3
3 3 3 3 3 3 3 3 3 3 3 3 2 2 2 2 3 3 3 5 4 3 4 4 4 4 2 1 2 2 3 4 3 2 2 1 2 2
3 3 3 3 3 3 3 3 3 3 3 3 3 3 3 3 3 4 3 4 4 4 4 3 2 1 1 3 3 3 3 2 2 3 3 2 1 2
3 4 3 3 3 3 3 3 3 3 3 3 3 3 3 3 3 3 3 3 3 4 4 3 2 2 2 3 2 2 3 2 1 2 3 5 5 5
Wind_Direction
339 0 358 349 1 28 54 142 237 325 323 354 32 40 55 78 64 33 48 101 25 10 16 23 26 37 56 64 72 75 72 70 75 78 76 79 82 81
354 20 15 23 14 14 29 349 355 298 300 309 317 3 53 33 36 14 13 339 280 284 289 5 34 45 70 65 70 79 79 75 78 80 79 77 81 83
346 14 14 13 8 360 4 6 356 351 304 317 335 40 47 351 5 339 329 257 242 230 215 209 185 89 92 80 77 84 82 80 80 76 76 76 77 83
342 357 346 355 360 347 356 319 317 319 301 304 311 324 320 287 289 279 309 307 265 231 216 211 207 204 161 137 109 100 93 87 82 77 75 71 69 78
349 352 329 306 289 275 259 249 258 298 297 292 289 300 303 280 325 300 295 290 285 246 223 223 216 201 188 182 180 168 151 137 116 97 87 76 66 64
343 347 335 333 312 278 266 264 267 279 279 287 280 289 271 281 304 303 327 324 302 291 243 232 217 210 200 201 204 200 193 197 189 168 142 116 97 61
337 347 345 5 5 350 328 305 289 285 288 283 276 297 287 315 283 273 303 298 298 247 121 236 209 204 210 213 211 209 204 204 202 197 194 194 196 223
313 314 311 329 335 340 334 322 312 298 289 282 267 268 267 261 266 291 252 307 288 278 88 281 219 217 231 200 202 205 210 217 217 218 218 221 227 240
299 310 314 314 329 299 298 302 295 292 280 263 249 256 258 258 237 273 261 252 251 253 108 272 263 250 250 225 206 203 212 222 221 228 231 236 236 242
295 284 286 306 314 316 291 283 279 282 274 264 243 250 250 249 227 217 242 264 263 255 157 241 282 273 265 247 225 210 209 215 222 232 239 241 240 240
313 317 319 306 318 321 304 289 286 280 267 265 267 275 281 274 250 211 251 271 269 267 209 183 253 297 284 258 223 212 209 215 221 232 242 248 245 241
318 328 334 326 319 323 299 280 279 282 293 293 286 281 273 276 268 217 202 222 228 251 243 162 238 346 310 292 244 202 208 221 224 230 241 247 243 234
325 326 327 331 322 319 309 285 276 285 282 273 264 269 263 249 252 234 208 207 213 234 227 178 231 246 240 285 301 253 209 230 231 237 240 242 239 229
321 328 326 332 330 322 313 306 303 305 289 289 286 261 254 258 253 235 240 241 236 227 221 193 207 217 230 267 281 290 280 246 227 240 241 245 242 237
320 316 312 314 319 316 310 310 306 291 276 268 261 256 247 243 242 246 247 268 275 261 240 221 203 219 209 229 244 258 285 282 234 251 251 234 230 225
322 314 309 305 307 300 306 305 288 277 261 259 262 258 254 253 250 229 221 235 271 274 264 249 227 204 226 237 235 257 259 256 280 274 263 265 237 217
316 316 324 332 331 325 318 306 292 294 283 283 280 286 286 281 275 262 205 185 233 259 269 275 247 228 223 223 237 244 249 262 259 264 260 272 262 238
316 305 307 312 309 312 313 310 305 299 286 275 271 274 272 266 274 274 226 205 235 254 252 257 266 303 320 287 224 236 247 252 258 253 239 258 277 274
301 290 293 292 296 298 298 297 300 303 304 291 271 265 268 270 266 263 253 240 245 259 253 243 218 201 248 273 268 235 245 270 271 259 245 246 259 273
274 278 286 291 296 297 298 302 305 311 309 300 280 272 265 260 259 256 249 247 249 254 253 242 230 219 228 250 264 279 263 247 248 254 264 277 284 295
274 277 276 282 289 291 295 298 298 296 298 302 287 271 265 264 261 255 254 257 250 253 250 250 248 248 246 254 272 287 301 277 261 253 258 282 300 317
276 274 272 273 279 282 287 291 293 293 292 288 285 275 265 262 259 256 257 256 244 246 257 260 256 249 241 237 252 266 289 313 320 329 339 315 232 248
274 273 272 274 273 275 274 277 279 282 282 282 284 279 272 267 264 256 260 262 260 258 258 252 249 240 242 232 241 263 276 293 319 338 322 311 294 288
Height
1529 1528 1528 1527 1527 1526 1526 1526 1526 1524 1523 1522 1522 1521 1521 1520 1519 1519 1518 1518 1517 1516 1515 1514 1514 1513 1513 1513 1513 1513 1514 1514 1515 1515 1515 1515 1516 1516
1528 1527 1526 1526 1525 1525 1525 1525 1525 1524 1522 1521 1521 1520 1519 1519 1518 1518 1517 1517 1516 1515 1515 1514 1514 1513 1513 1513 1513 1514 1514 1514 1514 1515 1515 1515 1515 1516
1526 1526 1525 1524 1524 1523 1523 1523 1523 1523 1521 1520 1520 1519 1518 1517 1517 1516 1516 1515 1515 1515 1514 1514 1513 1513 1513 1513 1513 1513 1513 1514 1514 1514 1514 1515 1515 1515
1524 1524 1523 1523 1523 1522 1522 1522 1522 1521 1520 1519 1518 1517 1517 1516 1515 1515 1514 1514 1514 1513 1513 1513 1512 1512 1512 1513 1513 1513 1513 1513 1513 1513 1514 1514 1514 1514
1523 1522 1522 1522 1521 1521 1521 1520 1520 1519 1519 1517 1516 1516 1515 1515 1514 1514 1513 1513 1512 1512 1512 1512 1511 1511 1512 1512 1512 1512 1512 1512 1512 1513 1513 1513 1513 1513
1521 1521 1521 1520 1520 1520 1519 1519 1518 1517 1516 1515 1515 1514 1513 1513 1513 1512 1511 1511 1511 1510 1510 1510 1510 1510 1510 1511 1511 1511 1511 1511 1512 1512 1512 1512 1512 1512
1519 1519 1519 1519 1519 1518 1517 1517 1516 1515 1514 1513 1513 1512 1512 1511 1510 1510 1509 1509 1509 1509 1508 1509 1509 1509 1509 1509 1510 1510 1510 1510 1510 1510 1510 1510 1510 1510
1517 1517 1517 1517 1516 1516 1515 1515 1515 1514 1512 1511 1511 1510 1510 1510 1509 1508 1508 1507 1507 1508 1507 1507 1507 1507 1507 1507 1508 1508 1508 1509 1509 1509 1509 1509 1509 1509
1515 1515 1514 1514 1514 1513 1513 1512 1512 1511 1511 1510 1509 1508 1508 1508 1507 1507 1506 1506 1505 1505 1505 1504 1505 1504 1505 1505 1506 1506 1506 1507 1507 1507 1507 1507 1507 1506
1513 1513 1512 1512 1511 1511 1510 1509 1508 1507 1507 1507 1506 1506 1506 1506 1505 1505 1504 1504 1503 1503 1503 1502 1502 1502 1503 1503 1504 1504 1504 1504 1504 1504 1504 1504 1504 1504
1510 1510 1510 1509 1508 1508 1507 1506 1505 1504 1504 1504 1504 1503 1503 1503 1502 1502 1502 1501 1500 1501 1501 1500 1500 1500 1500 1500 1501 1501 1502 1502 1502 1501 1501 1501 1501 1501
1508 1507 1507 1506 1505 1505 1504 1503 1502 1501 1501 1501 1500 1500 1500 1499 1499 1499 1498 1498 1498 1498 1498 1498 1498 1498 1497 1497 1498 1498 1499 1498 1498 1498 1498 1498 1498 1497
1504 1504 1503 1503 1502 1501 1500 1499 1499 1499 1498 1498 1497 1496 1496 1496 1496 1495 1495 1495 1495 1495 1496 1495 1495 1495 1495 1494 1494 1495 1495 1495 1495 1495 1495 1495 1494 1494
1501 1500 1500 1499 1499 1498 1497 1496 1496 1496 1495 1494 1494 1493 1493 1492 1492 1492 1492 1492 1492 1492 1492 1493 1492 1492 1492 1491 1491 1491 1492 1492 1492 1491 1491 1491 1491 1490
1499 1498 1497 1496 1495 1494 1493 1493 1492 1492 1491 1490 1490 1489 1489 1489 1489 1489 1488 1489 1489 1489 1489 1489 1489 1489 1489 1488 1488 1488 1488 1488 1488 1488 1487 1487 1486 1486
1495 1494 1494 1493 1492 1491 1490 1489 1488 1488 1488 1487 1486 1486 1486 1486 1485 1485 1485 1485 1485 1484 1485 1485 1485 1485 1485 1485 1485 1484 1484 1484 1483 1483 1483 1483 1483 1483
1492 1491 1489 1488 1488 1487 1486 1485 1485 1484 1484 1483 1483 1483 1482 1482 1482 1482 1482 1481 1481 1481 1481 1482 1482 1482 1482 1482 1481 1481 1481 1480 1480 1480 1480 1479 1479 1479
1489 1487 1486 1485 1484 1484 1483 1482 1481 1481 1480 1480 1480 1479 1479 1479 1478 1479 1479 1478 1478 1478 1478 1478 1478 1478 1479 1478 1479 1477 1477 1477 1476 1476 1476 1475 1475 1475
1485 1484 1483 1482 1481 1480 1480 1479 1478 1478 1477 1477 1476 1476 1475 1475 1475 1475 1475 1475 1474 1474 1474 1474 1474 1474 1474 1474 1474 1475 1474 1473 1472 1472 1472 1472 1471 1471
1481 1481 1480 1479 1478 1477 1476 1475 1475 1474 1473 1473 1472 1472 1472 1471 1471 1471 1471 1471 1470 1471 1470 1471 1471 1471 1471 1471 1470 1470 1471 1470 1469 1469 1468 1468 1467 1467
1478 1477 1477 1476 1475 1474 1473 1472 1471 1470 1469 1469 1468 1468 1468 1467 1467 1466 1466 1467 1467 1466 1466 1466 1466 1468 1468 1468 1467 1466 1467 1467 1466 1466 1465 1464 1463 1462
1474 1473 1473 1472 1471 1470 1469 1468 1467 1466 1465 1464 1464 1464 1463 1463 1463 1462 1462 1462 1462 1462 1462 1462 1462 1463 1463 1462 1462 1462 1462 1463 1463 1462 1462 1462 1460 1459
1470 1469 1468 1467 1467 1466 1465 1464 1463 1462 1461 1460 1460 1459 1459 1458 1458 1458 1457 1457 1457 1457 1457 1457 1458 1458 1458 1458 1458 1458 1458 1458 1458 1457 1457 1457 1457 1457